Flag for Germany Weather past 2 weeks in Augsburg, Bavaria, Germany

Now
34 °F

Clear.


Feels Like: 27 °F
Forecast: 33 / 40 °F
Wind: 8 mph from West

Location: Augsburg Airport

Current Time: Mar 3, 2015 at 6:32:24 AM

Latest Report: Mar 3, 2015 at 5:50 AM


Visibility: 10 mi

Pressure: 30.18 "Hg

Humidity: 70%

Dew point: 25 °F

Location of AugsburgLocation

Historic Weather in Augsburg — Graph

°F

Augsburg temperature yesterday

Maximum temperature yesterday: 46 °F (at 6:20 AM)
Minimum temperature yesterday: 37 °F (at 6:20 PM)
Average temperature yesterday: 42 °F

Past Weeks' High & Low Weather Summary

 TemperatureHumidityPressure
High54 °F (Feb 20, 1:50 PM)100% (Feb 15, 8:20 PM)30.72 "Hg (Feb 15, 8:20 PM)
Low23 °F (Feb 27, 6:50 AM)28% (Feb 20, 2:20 PM)29.47 "Hg (Feb 21, 1:50 PM)
Average35 °F84%30.02 "Hg
* Reported Feb 15 8:20 PM — Mar 2 8:50 PM, Augsburg, Weather by CustomWeather, © 2015

Note: Actual official high and low records may vary slightly from our data, if they occured in-between our weather recording intervals... More about our weather records

Advertising

Augsburg weather history for previous 24 hours

 ConditionsComfort  
Time TempWeatherWind HumidityBarometerVisibility
8:50 PM
Mon, Mar 2
37 °FPassing clouds.15 mph81%29.95 "HgN/A
8:20 PM37 °FPassing clouds.14 mph81%29.92 "HgN/A
7:50 PM37 °FSprinkles. Passing clouds.22 mph93%29.92 "HgN/A
7:20 PM37 °FSprinkles. Partly cloudy.8 mph93%29.92 "HgN/A
6:50 PM37 °FPassing clouds.8 mph87%29.92 "HgN/A
6:20 PM37 °FPassing clouds.12 mph87%29.89 "HgN/A
5:50 PM39 °FPartly sunny.12 mph81%29.89 "HgN/A
5:20 PM41 °FSprinkles. Partly sunny.20 mph70%29.86 "HgN/A
4:50 PM43 °FPartly sunny.13 mph61%29.83 "HgN/A
4:20 PM43 °FScattered clouds.14 mph66%29.83 "HgN/A
3:50 PM45 °FScattered clouds.13 mph61%29.80 "HgN/A
3:20 PM45 °FScattered clouds.15 mph57%29.80 "HgN/A
2:50 PM45 °FScattered clouds.16 mph57%29.80 "HgN/A
1:50 PM45 °FBroken clouds.12 mph71%29.77 "HgN/A
1:20 PM43 °FScattered clouds.14 mph71%29.77 "HgN/A
12:50 PM43 °FPassing clouds.15 mph71%29.77 "HgN/A
12:20 PM43 °FPassing clouds.16 mph66%29.77 "HgN/A
11:50 AM43 °FPartly sunny.15 mph66%29.74 "HgN/A
11:20 AM43 °FBroken clouds.15 mph66%29.74 "HgN/A
10:50 AM43 °FPartly sunny.21 mph71%29.74 "HgN/A
10:20 AM41 °FPartly sunny.20 mph81%29.74 "HgN/A
9:50 AM41 °FLight rain. Partly sunny.18 mph87%29.74 "HgN/A
9:20 AM41 °FRain. Overcast.18 mph93%29.71 "HgN/A
8:50 AM41 °FRain. More clouds than sun.21 mph87%29.68 "HgN/A
8:20 AM43 °FLight rain. Broken clouds.15 mph93%29.68 "HgN/A
7:50 AM43 °FLight rain. Partly sunny.6 mph100%29.65 "HgN/A
7:20 AM45 °FBroken clouds.9 mph93%29.65 "HgN/A
6:50 AM45 °FLight rain. Partly cloudy.16 mph93%29.65 "HgN/A
6:20 AM46 °FLight rain. Partly cloudy.12 mph93%29.62 "Hg1 mi
Weather by CustomWeather, © 2015

See weather overviewHow to use our weather pages